Weather reports worldwide

Advertisment
Valladolid, Spain (8141): temperature & dewpoint: 28.05.2020 21:00:00 - 03.06.2020 21:00:00 (CEST)Valladolid, Spain (8141): wind speed: 28.05.2020 21:00:00 - 03.06.2020 21:00:00 (CEST)Valladolid, Spain (8141): wind direction: 28.05.2020 21:00:00 - 03.06.2020 21:00:00 (CEST)Valladolid, Spain (8141): reduced air pressure: 28.05.2020 21:00:00 - 03.06.2020 21:00:00 (CEST)Valladolid, Spain (8141): visibility: 28.05.2020 21:00:00 - 03.06.2020 21:00:00 (CEST)Valladolid, Spain (8141): precipitation: 28.05.2020 21:00:00 - 03.06.2020 21:00:00 (CEST)
Date & Time tt [°C] td [°C] ff [km/h] ff [kn] dd ppp [hPa] vv [km] rr [mm]
03.06.2020 21:00:00 16,7 15,1 4 2 ENE 1007,3 16 1,0
03.06.2020 20:00:00 17,5 15,1 4 2 NNW 1005,7 20 -
03.06.2020 19:00:00 19,0 13,6 5 3 NNW 1005,7 20 0,0
03.06.2020 18:00:00 22,1 14,0 9 5 N 1005,0 20 0,0
03.06.2020 17:00:00 27,1 13,4 21 11 W 1003,1 25 -
03.06.2020 16:00:00 26,8 12,8 18 10 WSW 1003,3 20 0,0
03.06.2020 15:00:00 26,5 13,3 16 9 WSW 1004,2 20 0,0
03.06.2020 14:00:00 26,1 13,9 11 6 W 1005,3 22 -
03.06.2020 13:00:00 23,5 13,9 9 5 WSW 1007,2 20 0,0
03.06.2020 12:00:00 22,3 14,9 9 5 SW 1008,0 20 0,0
03.06.2020 11:00:00 20,1 14,7 8 4 SSW 1008,8 20 -
03.06.2020 10:00:00 19,7 14,1 8 4 WSW 1009,3 19 0,0
03.06.2020 09:00:00 16,8 13,7 8 4 SSW 1010,3 20 0,0
03.06.2020 08:00:00 15,7 13,9 4 2 W 1010,6 10 -
03.06.2020 07:00:00 14,8 13,2 5 3 W 1010,9 20 0,0
03.06.2020 06:00:00 15,3 13,3 4 2 NNW 1010,6 20 0,0
03.06.2020 05:00:00 16,0 13,8 8 4 W 1010,5 20 -
03.06.2020 04:00:00 16,5 13,6 4 2 NW 1010,7 20 0,0
03.06.2020 03:00:00 17,5 14,0 4 2 W 1010,8 20 0,0
03.06.2020 02:00:00 18,2 14,1 4 2 WNW 1011,0 25 -
03.06.2020 01:00:00 19,5 14,1 4 2 WNW 1010,9 20 0,0
03.06.2020 00:00:00 22,0 13,1 5 3 WNW 1010,4 20 0,0
02.06.2020 23:00:00 24,1 12,1 8 4 SW 1009,8 30 -
02.06.2020 22:00:00 25,4 10,8 5 3 SSW 1008,6 20 0,0
02.06.2020 21:00:00 27,0 7,4 4 2 SSW 1007,7 20 0,0
02.06.2020 20:00:00 28,1 7,3 4 2 SW 1007,4 30 -
02.06.2020 19:00:00 28,8 6,2 8 4 S 1007,4 20 0,0
02.06.2020 18:00:00 30,6 8,9 5 3 W 1007,5 20 0,0
02.06.2020 17:00:00 29,7 7,6 4 2 SSE 1008,4 30 -
02.06.2020 16:00:00 29,3 8,4 8 4 SSE 1009,2 20 0,0
02.06.2020 15:00:00 29,2 7,1 4 2 ESE 1009,6 20 0,0
02.06.2020 14:00:00 27,8 8,6 5 3 NE 1010,5 30 -
02.06.2020 13:00:00 26,6 11,9 4 2 ESE 1011,4 20 0,0
02.06.2020 12:00:00 25,0 12,9 4 2 WNW 1012,4 20 0,0
02.06.2020 11:00:00 22,3 13,6 4 2 SW 1013,5 20 -
02.06.2020 10:00:00 19,6 13,3 4 2 S 1014,5 20 0,0
02.06.2020 09:00:00 17,3 12,6 8 4 S 1014,8 20 0,0
02.06.2020 08:00:00 16,5 13,0 4 2 SE 1014,7 15 -
02.06.2020 07:00:00 15,8 12,9 4 2 SSE 1014,9 20 0,0
02.06.2020 06:00:00 16,1 13,2 2 1 SSW 1014,4 20 0,0
02.06.2020 05:00:00 16,8 13,7 2 1 S 1014,0 15 -
02.06.2020 04:00:00 17,6 13,7 4 2 W 1013,8 20 0,0
02.06.2020 03:00:00 18,9 14,2 4 2 W 1013,7 20 0,0
02.06.2020 02:00:00 20,7 14,1 4 2 SSW 1013,0 20 -
02.06.2020 01:00:00 21,8 13,7 4 2 SSE 1012,8 20 0,0
02.06.2020 00:00:00 22,8 13,0 8 4 S 1012,7 20 0,0
01.06.2020 23:00:00 23,3 13,2 5 3 S 1012,3 25 -
01.06.2020 22:00:00 24,6 12,2 5 3 SSE 1011,3 20 0,0
01.06.2020 21:00:00 25,2 12,4 2 1 N 1010,6 20 0,0
01.06.2020 20:00:00 26,1 11,1 5 3 NNW 1010,1 30 -
01.06.2020 19:00:00 28,4 10,6 5 3 NNW 1009,3 19 0,0
01.06.2020 18:00:00 29,0 10,2 4 2 SSW 1009,6 20 0,0
01.06.2020 17:00:00 27,8 10,9 4 2 ENE 1010,0 30 -
01.06.2020 16:00:00 27,5 9,8 5 3 ENE 1010,5 19 0,0
01.06.2020 15:00:00 27,6 13,2 4 2 SW 1010,7 20 0,0
01.06.2020 14:00:00 26,0 10,6 4 2 E 1011,6 30 -
01.06.2020 13:00:00 24,1 11,8 4 2 N 1012,5 20 0,0
01.06.2020 12:00:00 22,9 12,8 4 2 NNW 1012,8 20 0,0
01.06.2020 11:00:00 20,8 13,5 4 2 E 1013,2 30 -
01.06.2020 10:00:00 18,4 13,5 5 3 ENE 1014,0 20 0,0
01.06.2020 09:00:00 16,1 13,9 4 2 NNE 1014,3 20 0,0
01.06.2020 08:00:00 13,6 13,1 2 1 N 1014,7 18 -
01.06.2020 07:00:00 13,1 12,5 4 2 NW 1014,6 14 0,0
01.06.2020 06:00:00 13,4 12,6 4 2 NNW 1014,0 19 0,0
01.06.2020 05:00:00 14,2 12,8 2 1 NNW 1013,6 15 -
01.06.2020 04:00:00 14,8 13,0 4 2 SE 1013,4 20 0,0
01.06.2020 03:00:00 15,1 13,6 4 2 S 1013,3 20 0,0
01.06.2020 02:00:00 15,3 14,0 8 4 SE 1013,7 12 -
01.06.2020 01:00:00 15,7 14,1 5 3 S 1014,4 20 0,0
01.06.2020 00:00:00 16,1 14,1 8 4 S 1013,8 20 0,0
31.05.2020 23:00:00 16,1 13,4 8 4 WSW 1014,4 12 -
31.05.2020 22:00:00 15,3 13,7 8 4 WNW 1013,9 20 0,6
31.05.2020 21:00:00 15,7 12,8 11 6 NW 1013,4 8 3,0
31.05.2020 20:00:00 22,0 9,2 9 5 W 1009,4 20 -
31.05.2020 19:00:00 26,0 9,3 5 3 WSW 1007,1 20 0,0
31.05.2020 18:00:00 26,4 9,7 5 3 SE 1006,8 20 0,0
31.05.2020 17:00:00 26,2 9,5 9 5 S 1007,9 30 -
31.05.2020 16:00:00 27,9 8,2 9 5 W 1007,0 20 0,0
31.05.2020 15:00:00 28,6 7,8 13 7 WSW 1007,0 20 0,0
31.05.2020 14:00:00 25,8 9,6 4 2 S 1008,0 30 -
31.05.2020 13:00:00 24,1 10,0 9 5 WNW 1009,7 19 0,0
31.05.2020 12:00:00 22,8 11,5 8 4 WNW 1010,4 20 0,0
31.05.2020 11:00:00 21,6 10,7 4 2 N 1009,8 30 -
31.05.2020 10:00:00 20,6 12,0 9 5 W 1010,6 20 0,0
31.05.2020 09:00:00 19,3 11,8 2 1 NNW 1010,0 18 0,0
31.05.2020 08:00:00 16,2 11,6 4 2 NW 1010,5 20 -
31.05.2020 07:00:00 15,9 11,7 2 1 NNW 1010,8 8 0,0
31.05.2020 06:00:00 17,5 11,1 4 2 SSW 1010,3 7 0,0
31.05.2020 05:00:00 18,1 11,6 4 2 SSE 1010,2 15 -
31.05.2020 04:00:00 19,6 10,8 2 1 S 1009,6 14 0,0
31.05.2020 03:00:00 21,0 10,2 5 3 SSW 1009,6 8 0,0
31.05.2020 02:00:00 21,4 10,5 9 5 WSW 1009,8 20 -
31.05.2020 01:00:00 22,5 8,9 5 3 S 1010,3 20 0,0
31.05.2020 00:00:00 22,6 8,3 8 4 WSW 1010,4 20 0,0
30.05.2020 23:00:00 22,8 8,9 5 3 S 1010,6 25 -
30.05.2020 22:00:00 23,2 9,2 8 4 SSW 1009,8 20 0,0
30.05.2020 21:00:00 25,1 9,0 11 6 SW 1008,9 20 0,0
30.05.2020 20:00:00 29,8 6,5 4 2 W 1006,2 30 -
30.05.2020 19:00:00 30,9 5,3 8 4 NW 1005,6 20 0,0
30.05.2020 18:00:00 31,6 5,2 8 4 WNW 1005,8 20 0,0
30.05.2020 17:00:00 32,2 6,4 8 4 SW 1005,7 30 -
30.05.2020 16:00:00 32,4 5,8 9 5 WSW 1006,3 19 0,0
30.05.2020 15:00:00 31,1 7,5 5 3 NW 1007,5 20 0,0
30.05.2020 14:00:00 29,0 9,2 4 2 NE 1008,6 30 -
30.05.2020 13:00:00 27,0 9,8 5 3 NNE 1009,6 20 0,0
30.05.2020 12:00:00 24,9 11,5 4 2 NE 1010,5 20 0,0
30.05.2020 11:00:00 22,2 11,3 4 2 W 1011,6 30 -
30.05.2020 10:00:00 19,6 10,8 4 2 ENE 1012,8 20 0,0
30.05.2020 09:00:00 16,4 10,3 4 2 N 1013,7 20 0,0
30.05.2020 08:00:00 14,3 9,3 4 2 N 1014,4 20 -
30.05.2020 07:00:00 13,5 9,0 4 2 NNW 1014,5 20 0,0
30.05.2020 06:00:00 14,0 8,8 4 2 NNW 1014,2 20 0,0
30.05.2020 05:00:00 14,7 9,1 4 2 NNW 1014,3 20 -
30.05.2020 04:00:00 15,7 9,1 4 2 NNW 1014,1 20 0,0
30.05.2020 03:00:00 17,0 9,7 4 2 N 1013,6 20 0,0
30.05.2020 02:00:00 18,2 10,3 4 2 NNW 1013,3 20 -
30.05.2020 01:00:00 19,8 10,5 4 2 N 1012,9 20 0,0
30.05.2020 00:00:00 21,2 9,7 4 2 N 1012,1 20 0,0
29.05.2020 23:00:00 23,7 8,1 2 1 NE 1011,1 20 -
29.05.2020 22:00:00 26,1 6,7 8 4 E 1009,9 20 0,0
29.05.2020 21:00:00 27,7 6,4 9 5 E 1009,2 20 0,0
29.05.2020 20:00:00 28,9 5,7 5 3 ENE 1008,8 30 -
29.05.2020 19:00:00 31,1 6,9 5 3 NE 1008,3 20 0,0
29.05.2020 18:00:00 31,3 7,0 4 2 ENE 1008,5 20 0,0
29.05.2020 17:00:00 31,3 8,9 4 2 N 1008,9 30 -
29.05.2020 16:00:00 30,8 9,1 5 3 SW 1009,6 20 0,0
29.05.2020 15:00:00 30,1 9,6 5 3 E 1010,5 20 0,0
29.05.2020 14:00:00 29,2 9,3 5 3 N 1011,5 30 -
29.05.2020 13:00:00 27,4 9,2 5 3 N 1012,8 20 0,0
29.05.2020 12:00:00 25,7 10,3 4 2 ESE 1013,9 20 0,0
29.05.2020 11:00:00 23,2 9,9 4 2 SE 1014,9 25 -
29.05.2020 10:00:00 20,6 9,2 4 2 SE 1016,3 20 0,0
29.05.2020 09:00:00 17,2 10,6 2 1 NNE 1017,3 20 0,0
29.05.2020 08:00:00 14,3 10,1 4 2 N 1018,4 15 -
29.05.2020 07:00:00 13,4 9,8 2 1 NNW 1018,7 20 0,0
29.05.2020 06:00:00 14,2 10,0 2 1 NNW 1018,5 20 0,0
29.05.2020 05:00:00 15,0 10,0 2 1 N 1018,3 20 -
29.05.2020 04:00:00 16,2 9,8 2 1 NNW 1018,2 20 0,0
29.05.2020 03:00:00 17,1 10,0 2 1 NW 1018,1 20 0,0
29.05.2020 02:00:00 18,4 10,2 4 2 WNW 1017,7 20 -
29.05.2020 01:00:00 19,8 10,2 4 2 S 1017,8 20 0,0
29.05.2020 00:00:00 21,7 10,2 5 3 ENE 1017,1 20 0,0
28.05.2020 23:00:00 22,5 10,3 5 3 ENE 1016,9 25 -
28.05.2020 22:00:00 24,2 9,4 4 2 WNW 1016,1 20 0,0
28.05.2020 21:00:00 26,6 7,6 4 2 NE 1015,2 20 0,0

tt = temperature
td = dewpoint
ff = wind speed
dd = wind direction
ppp = reduced air pressure
vv = visibility
rr = precipitation

Next stations